Location: El Corozo
(10.5833°N, 66.9667°W)
Time: 16:22:35
(UTC+00:00)

ATLAS 3B R/B - Pass Details

Date: 09 August 2024
Orbit: 940 x 1254 km, 63.8° (Epoch: 19 September)

Event Time Altitude Azimuth Distance (km) Brightness Sun altitude
Rises 08:35:25 0° 321° (NW) 4,163 5.6 -24.6°
Reaches altitude 10° 08:38:30 10° 314° (NW) 3,171 4.9 -23.9°
Enters shadow 08:40:59 20° 302° (WNW) 2,448 4.2 -23.3°
Exits shadow 08:48:32 25° 206° (SSW) 2,129 3.9 -21.6°
Drops below altitude 10° 08:51:46 10° 186° (S) 2,991 4.8 -20.9°
Sets 08:54:36 0° 177° (S) 3,900 5.5 -20.2°
